Ogden, UT

7:23 AM MDT on October 18, 2017 (GMT -0600)
Ogden-Hinckley

Weather History for KOGD - November, 2011

Change the Weather History Date:

Monday, November 21, 2011

  Actual Average Record
Temperature  
Mean Temperature 36 °F -  
Max Temperature 42 °F 46 °F 65 °F (1954)
Min Temperature 30 °F 26 °F 10 °F (1946)
Degree Days  
Heating Degree Days 29    
Moisture  
Dew Point 35 °F    
Average Humidity 93    
Maximum Humidity 100    
Minimum Humidity 81    
Precipitation  
Precipitation 0.05 in - - ()
Sea Level Pressure  
Sea Level Pressure 30.09 in    
Wind  
Wind Speed 3 mph (SSE)    
Max Wind Speed 8 mph    
Max Gust Speed -    
Visibility 4 miles    
Events Fog , Rain    
Averages and records for this station are not official NWS values.
T = Trace of Precipitation, MM = Missing Value Source: NWS Daily Summary

Daily Weather History Graph

Daily Weather History Graph

Search for Another Location

Airport or City:

Trip Planner

Search our weather history database for the weather conditions in past years. The results will help you decide how hot, cold, wet, or windy it might be!

Date:

Astronomy

Nov. 21, 2011 Rise Set
Actual Time 7:22 AM MST 5:04 PM MST
Civil Twilight 6:52 AM MST 5:34 PM MST
Nautical Twilight 6:19 AM MST 6:08 PM MST
Astronomical Twilight 5:46 AM MST 6:41 PM MST
Moon 3:03 AM MST (11/21) 2:30 PM MST (11/21)
Length of Visible Light 10h 41m
Length of Day
9h 41m
Waning Crescent, 17% of the Moon is Illuminated
Nov 21
Waning Crescent
Nov 24
New
Dec 2
First Quarter
Dec 10
Full
Dec 17
Last Quarter

Hourly Weather History & Observations

Time (MST) Temp. Windchill Dew Point Humidity Pressure Visibility Wind Dir Wind Speed Gust Speed Precip Events Conditions
12:53 AM 32.0 °F 27.5 °F 28.9 °F 88% 30.01 in 9.0 mi SSE 4.6 mph - N/A   Mostly Cloudy
1:53 AM 30.9 °F - 28.9 °F 92% 30.01 in 7.0 mi Calm Calm - N/A   Overcast
2:53 AM 32.0 °F 27.5 °F 28.4 °F 87% 30.01 in 9.0 mi SSE 4.6 mph - N/A   Overcast
3:53 AM 35.1 °F 28.6 °F 33.1 °F 92% 30.02 in 6.0 mi SE 8.1 mph - 0.00 in Rain Light Rain
4:53 AM 35.1 °F 28.6 °F 33.1 °F 92% 30.01 in 6.0 mi South 8.1 mph - 0.00 in   Mostly Cloudy
5:53 AM 33.1 °F 27.7 °F 32.0 °F 96% 30.05 in 4.0 mi SSW 5.8 mph - N/A   Overcast
6:27 AM 35.6 °F - 33.8 °F 93% 30.03 in 5.0 mi Calm Calm - N/A   Overcast
6:53 AM 35.1 °F - 33.1 °F 92% 30.05 in 5.0 mi Calm Calm - 0.00 in Rain Light Rain
7:26 AM 35.6 °F - 33.8 °F 93% 30.03 in 4.0 mi Calm Calm - 0.00 in Rain Light Rain
7:32 AM 33.8 °F - 33.8 °F 100% 30.04 in 2.5 mi Calm Calm - 0.00 in Rain Light Rain
7:40 AM 33.8 °F - 33.8 °F 100% 30.04 in 3.0 mi Calm Calm - 0.01 in Rain Light Rain
7:53 AM 35.1 °F - 34.0 °F 96% 30.07 in 2.0 mi Calm Calm - 0.01 in Rain Light Rain
8:10 AM 35.6 °F - 33.8 °F 93% 30.05 in 2.5 mi Calm Calm - 0.00 in Rain Light Rain
8:24 AM 35.6 °F 31.7 °F 33.8 °F 93% 30.05 in 1.8 mi East 4.6 mph - 0.01 in Rain Light Rain
8:36 AM 35.6 °F 31.7 °F 33.8 °F 93% 30.05 in 2.0 mi East 4.6 mph - 0.02 in Rain Light Rain
8:49 AM 35.6 °F 31.7 °F 33.8 °F 93% 30.06 in 3.0 mi East 4.6 mph - N/A Rain Light Rain
8:53 AM 36.0 °F 33.3 °F 35.1 °F 97% 30.08 in 4.0 mi East 3.5 mph - 0.02 in Rain Light Rain
9:15 AM 35.6 °F - 35.6 °F 100% 30.06 in 2.5 mi Calm Calm - 0.01 in Rain Light Rain
9:53 AM 37.0 °F 34.5 °F 36.0 °F 96% 30.08 in 2.5 mi ESE 3.5 mph - 0.02 in Rain Light Rain
10:36 AM 39.2 °F 35.9 °F 37.4 °F 93% 30.07 in 2.5 mi SSE 4.6 mph - 0.00 in   Overcast
10:53 AM 39.0 °F 35.7 °F 37.0 °F 93% 30.09 in 2.5 mi SSE 4.6 mph - 0.00 in Rain Light Rain
11:00 AM 39.2 °F 35.9 °F 37.4 °F 93% 30.08 in 5.0 mi SE 4.6 mph - N/A   Overcast
11:15 AM 39.2 °F 37.0 °F 37.4 °F 93% 30.08 in 8.0 mi South 3.5 mph - N/A   Overcast
11:53 AM 41.0 °F 39.0 °F 37.0 °F 86% 30.08 in 10.0 mi South 3.5 mph - N/A   Overcast
12:53 PM 41.0 °F 39.0 °F 37.9 °F 89% 30.07 in 10.0 mi West 3.5 mph - N/A   Overcast
1:51 PM 41.0 °F 37.1 °F 39.2 °F 93% 30.07 in 4.0 mi NW 5.8 mph - 0.00 in   Overcast
1:53 PM 41.0 °F 38.0 °F 39.0 °F 93% 30.09 in 4.0 mi NW 4.6 mph - 0.00 in   Overcast
2:06 PM 39.2 °F 35.9 °F 37.4 °F 93% 30.08 in 2.0 mi NNW 4.6 mph - N/A   Overcast
2:19 PM 39.2 °F 37.0 °F 39.2 °F 100% 30.08 in 3.0 mi North 3.5 mph - N/A   Mostly Cloudy
2:51 PM 41.0 °F - 37.4 °F 87% 30.07 in 4.0 mi Calm Calm - N/A   Overcast
2:53 PM 41.0 °F - 37.9 °F 89% 30.08 in 5.0 mi Calm Calm - N/A   Overcast
3:00 PM 42.8 °F - 37.4 °F 81% 30.08 in 5.0 mi Calm Calm - N/A   Overcast
3:31 PM 41.0 °F - 37.4 °F 87% 30.08 in 6.0 mi Calm Calm - N/A   Overcast
3:53 PM 42.1 °F - 37.9 °F 85% 30.09 in 7.0 mi Calm Calm - N/A   Overcast
4:53 PM 41.0 °F - 37.0 °F 86% 30.10 in 7.0 mi Calm Calm - N/A   Partly Cloudy
5:53 PM 37.9 °F - 37.0 °F 97% 30.12 in 7.0 mi Calm Calm - N/A   Clear
6:53 PM 36.0 °F 33.3 °F 34.0 °F 93% 30.15 in 5.0 mi SSE 3.5 mph - N/A   Clear
7:53 PM 34.0 °F 31.0 °F 33.1 °F 96% 30.18 in 9.0 mi South 3.5 mph - N/A   Clear
8:18 PM 33.8 °F 30.8 °F 33.8 °F 100% 30.17 in 2.0 mi NW 3.5 mph - N/A   Partly Cloudy
8:21 PM 33.8 °F - 33.8 °F 100% 30.17 in 1.0 mi Calm Calm - N/A   Mist
8:23 PM 33.8 °F - 33.8 °F 100% 30.17 in 0.5 mi Calm Calm - N/A Fog Fog
8:48 PM 32.0 °F - 32.0 °F 100% 30.18 in 0.2 mi Calm Calm - N/A Fog Fog
8:53 PM 32.0 °F - 32.0 °F 100% 30.20 in 0.5 mi Calm Calm - N/A Fog Fog
8:57 PM 33.8 °F - 32.0 °F 93% 30.18 in 0.5 mi Calm Calm - N/A Fog Fog
9:01 PM 33.8 °F 30.8 °F 32.0 °F 93% 30.18 in 1.0 mi SE 3.5 mph - N/A   Scattered Clouds
9:09 PM 33.8 °F 29.6 °F 32.0 °F 93% 30.17 in 3.0 mi SSE 4.6 mph - N/A   Partly Cloudy
9:53 PM 33.1 °F 27.7 °F 30.9 °F 92% 30.19 in 7.0 mi South 5.8 mph - N/A   Clear
10:53 PM 33.1 °F 28.7 °F 32.0 °F 96% 30.20 in 8.0 mi South 4.6 mph - N/A   Clear